Location: Casteau
(50.5142°N, 4.0161°E)
Time: 17:09:35
(UTC+00:00)

S-56A Canister/Altair - Pass Details

Date: 06 August 2021
Orbit: 632 x 2500 km, 38.9° (Epoch: 20 September)

Event Time Altitude Azimuth Distance (km) Brightness Sun altitude
Rises 16:27:47 0° 266° (W) 5,643 13.3 25.6°
Reaches altitude 10° 16:31:22 10° 261° (W) 4,817 13.5 25.1°
Maximum altitude 16:44:41 49° 193° (SSW) 3,017 11.0 23.0°
Drops below altitude 10° 16:58:25 10° 126° (SE) 4,955 11.2 20.8°
Sets 17:02:10 0° 121° (ESE) 5,809 11.5 20.2°
